www.pogodaiklimat.ru

Погода и климат >> Архив погоды >> Китай >> Shisan Jianfang


ПОГОДА в Shisan Jianfang

  • Прогноз погоды в Shisan Jianfang
  • Монитор погоды в Shisan Jianfang
  • Климат города

АРХИВ ПОГОДЫ в Shisan Jianfang

Время (UTC), дата Ветер
(напр.,м/с)
 
Видим.   Явления Облачность Т
(С)
Тd
(С)
f
(%)
Тe
(С)
Тes
(С)
Комфортность P
(гПа)
Po
(гПа)
Тmin
(С)
Tmax
(С)
R
(мм)
R24
(мм)
S
(см)
18 13.08 С 18
{28}
30 км ?/? +21.9 +7.3 39 +23 +23 комфорт 1005.6 1006.0 +26.1
21 13.08 С 15
{25}
30 км ?/? +21.3 +6.4 38 +22 +22 комфорт 1004.7 1005.0
00 14.08 С 15
{24}
26 км ясно +21.2 +5.9 37 +22 +22 комфорт 1005.2 1005.0
03 14.08 С 16 26 км ясно +25.8 +1.2 20 +24 +24 комфорт 1005.2 1005.0
06 14.08 С 17
{24}
30 км 1/1
[]
+30.8 +2.1 16 +28 +28 жарко 1002.2 1015.6 +20.9
09 14.08 С 19 26 км ясно +32.1 +0.2 13 +29 +29 жарко 999.7 1000.0
12 14.08 С 20
{25}
11 км 3/3
[]
+30.1 -1.3 13 +27 +27 жарко 1000.2 921.3
18 14.08 С 19
{28}
30 км ?/? +26.6 +2.5 21 +25 +25 комфорт 1001.4 1001.0 +32.7
21 14.08 С 17
{25}
30 км ?/? +25.8 +1.2 20 +24 +24 комфорт 1002.1 1002.0
00 15.08 С 19
{25}
30 км 9/9 1500 м
[]
+23.0 +3.5 28 +23 +23 комфорт 1002.9 1002.8
03 15.08 С 12 22 км 9/9 1500 м
[]
+24.3 +7.0 33 +24 +24 комфорт 1002.9 1003.0
06 15.08 С 11
{24}
12 км 9/9 1500 м
[]
+28.9 +2.2 18 +27 +27 жарко 1002.4 1002.0 +23.0
09 15.08 С 9
{19}
30 км 9/9 1500 м
[]
+30.6 +1.0 15 +28 +28 жарко 1001.6 1002.0
12 15.08 С 12 8000 м 9/9 1500 м
[]
+29.2 -0.1 15 +27 +27 жарко 1001.5 1002.0
18 15.08 С 10 30 км ?/? +25.8 -0.3 18 +24 +24 комфорт 1002.2 923.6 +30.8
21 15.08 С 9 30 км н/о +25.2 0.0 19 +24 +24 комфорт 1002.1 1002.0
00 16.08 С 10 23 км ясно +25.3 -0.7 18 +24 +24 комфорт 1003.6 1015.9
03 16.08 С 12
{17}
14 км ясно +29.7 +2.1 17 +27 +27 жарко 1003.3 1003.0
06 16.08 С 8
{17}
30 км 3/3 1500 м
[]
+34.8 +2.3 13 +32 +34 жарко 1000.9 1001.0 +24.7
09 16.08 С 11 30 км 1/1 1500 м
[]
+36.0 +2.2 12 +33 +33 жарко 998.7 999.0
12 16.08 С 18
{21}
20 км ясно +32.9 +2.9 15 +30 +30 жарко 998.9 999.0
18 16.08 С 14
{21}
30 км ?/? +28.7 +2.1 18 +27 +27 жарко 1000.5 1001.0 +37.2
21 16.08 С 14
{20}
30 км ?/? +27.4 +3.2 21 +26 +26 жарко 1000.2 1000.0
00 17.08 С 15
{22}
16 км 4/4 1500 м
[]
+26.5 +3.1 22 +25 +25 комфорт 1001.9 1001.2
03 17.08 С 19
{23}
3100 м 8/8 1500 м
[]
+28.9 +3.7 20 +27 +27 жарко 1002.0 1002.0
06 17.08 С 14
{23}
30 км 3/3 1500 м
[]
+33.6 +3.4 15 +31 +31 жарко 999.8 1000.0 +26.0
09 17.08 С 15 30 км 5/5 1500 м
[]
+35.0 +2.5 13 +32 +32 жарко 997.3 997.0
12 17.08 С 16
{22}
30 км 9/9 1500 м
[]
+32.1 +2.2 15 +29 +29 жарко 997.9 998.0
18 17.08 С 16
{24}
30 км ?/? +26.9 +5.2 25 +26 +26 жарко 1001.0 1001.0 +35.7
21 17.08 С 14
{24}
30 км ?/? +22.9 +9.3 42 +24 +24 комфорт 1003.8 1004.0
00 18.08 СВ 13
{23}
25 км 9/9
[]
+18.6 +12.8 69 +18 +18 1006.7 1006.7 0.7
03 18.08 15 30 км н/о +22.6 +9.4 43 +24 +24 комфорт 1007.9 1008.0
06 18.08 С 17
{23}
30 км 6/6 1500 м
[]
+25.6 +8.1 33 +26 +26 жарко 1007.1 1007.0 +18.6
09 18.08 С 18
{24}
30 км 9/9 1500 м
[]
+26.3 +7.8 31 +26 +26 жарко 1006.3 1006.0
12 18.08 С 12
{24}
28 км 5/5 1500 м
[]
+25.7 +7.3 31 +26 +26 жарко 1008.0 1008.0
18 18.08 С 14
{19}
30 км ?/? +22.4 +8.9 42 +24 +24 комфорт 1010.1 1010.0 +27.6
21 18.08 С 15 30 км н/о +21.7 +8.6 43 +23 +23 комфорт 1009.7 1010.0
00 19.08 С 14
{22}
28 км 9/9
[]
+20.9 +8.5 45 +21 +21 комфорт 1011.2 1011.3
03 19.08 С 13
{22}
30 км 9/9
[]
+24.0 +8.0 36 +24 +24 комфорт 1011.8 1012.0
06 19.08 С 6
{20}
30 км 8/8 1500 м
[]
+27.9 +4.9 23 +27 +28 жарко 1010.0 1010.0 +20.9
09 19.08 СЗ 7 30 км 8/8 1500 м
[]
+28.1 +5.0 23 +27 +27 жарко 1008.5 1009.0
12 19.08 С 11 30 км 3/3 1500 м
[]
+28.0 +3.0 20 +26 +26 жарко 1008.6 1009.0
18 19.08 С 11 30 км ?/? +23.0 +3.5 28 +23 +23 комфорт 1010.3 1010.0 +29.8
21 19.08 С 10 30 км ?/? +21.3 +2.1 28 +21 +21 комфорт 1010.3 1010.0
00 20.08 С 11 30 км 5/5 1500 м
[]
+21.6 +2.3 28 +21 +21 комфорт 1010.3 1010.0
03 20.08 С 11 30 км 3/3 1500 м
[]
+25.8 +1.2 20 +24 +24 комфорт 1009.8 1010.0
06 20.08 С 11
{18}
30 км 8/8 1500 м
[]
+29.4 -0.9 14 +27 +27 жарко 1007.2 1007.0 +20.4
09 20.08 С 10 30 км 9/9 1500 м
[]
+30.9 +0.3 14 +28 +28 жарко 1005.5 1006.0
12 20.08 С 12
{19}
30 км 6/6 1500 м
[]
+27.9 +2.2 19 +26 +26 жарко 1006.5 926.9

 

Местоположение метеостанции Shisan Jianfang (Китай): широта 43.22 долгота 91.73 высота над уровнем моря 792 м.

В архиве по умолчанию представлена погода в Shisan Jianfang за последнюю неделю. Архивные данные за месяц целиком и за предыдущие месяцы, начиная с января 2011 года, Вы можете получить, выбрав интересующий диапазон дат из раскрывающегося списка и нажав кнопку "Ввод!".

Внимание! Время в таблицах - всемирное. Для получения местного времени необходимо прибавить поправку, которая в Shisan Jianfang равна 8 ч.

Смотрите также архив погоды в соседних городах и на ближайших метеорологических станциях:

Погода в Hami (Китай) (152 км)
Погода в Qitai (Китай) (195 км)
Погода в Turpan (Китай) (208 км)
Погода в Beita Shan (Китай) (258 км)
Погода в Naomaohu (Китай) (278 км)
Погода в Baitag (Монголия) (323 км)
Погода в Urumqi (Китай) (335 км)
Погода в Tonhil (Монголия) (385 км)
Погода в Jargalant (Монголия) (415 км)
Погода в Dunhuang (Китай) (420 км)

Пояснения к столбцам:

Ветер - указаны скорость ветра в м/с - средняя за 10 мин, порывы в срок и между сроками (в фигурных скобках) и направление, откуда дует ветер: С - северный, СВ - северо-восточный, В - восточный, ЮВ - юго-восточный, Ю - южный, ЮЗ - юго-западный, З - западный, СЗ - северо-западный.
Видимость - горизонтальная дальность видимости в метрах или километрах. При видимости от 1 до 10 км при отсутствии осадков обычно наблюдается дымка, при ухудшении видимости до 1 км и менее - туман. В сухую погоду видимость может ухудшаться дымом, пылью или мглою.
Явления - указаны атмосферные явления, наблюдавшиеся в срок или в последний час перед сроком; фигурными скобками обозначены явления, наблюдавшиеся между сроками (за 1-3 часа до срока); квадратными скобками обозначены град или гололедные отложения с указанием их диаметра в мм.
Облачность - указаны через наклонную черту общая и нижняя облачность в баллах и высота нижней границы облаков в метрах; квадратными скобками обозначены формы облаков: Ci - перистые, Cs - перисто-слоистые, Cc - перисто-кучевые, Ac - высококучевые, As - высокослоистые, Sc - слоисто-кучевые, Ns - слоисто-дождевые, Cu - кучевые, Cb - кучево-дождевые. Подробнее классификацию облаков см. в Атласе облаков (PDF).
T - Температура воздуха - температура, измеренная на высоте 2 м над землей.
Td - Температура точки росы - температура, при понижении до которой содержащийся в воздухе водяной пар достигнет насыщения.
f - Относительная влажность воздуха - влажноcть воздуха, измеренная на высоте 2 м над землей.
Te - Эффективная температура - температура, которую ощущает одетый по сезону человек в тени. Характеристика душности погоды. При расчете учитывается влияние влажности воздуха и скорости ветра на теплоощущения человека.
Tes - Эффективная температура на солнце - температура, которую ощущает человек, с поправкой на солнечный нагрев. Характеристика знойности погоды. Зависит от высоты солнца над горизонтом, облачности и скорости ветра. Ночью, в пасмурную погоду, а также при ветре 12 м/с и более поправка равна нулю.
P - Атмосферное давление - приведенное к уровню моря атмосферное давление.
Po - Атмосферное давление - измеренное на уровне метеостанции атмосферное давление.
Tmin - Минимальная температура - минимум температуры воздуха на высоте 2 м над землей.
Tmax - Максимальная температура - максимум температуры воздуха на высоте 2 м над землей.
R - Количество осадков - Количество выпавших осадков за период времени, мм. При наведении курсора мыши на число - период времени, за который выпало указанное количество осадков.
R24 - Количество осадков - Количество выпавших осадков за 24 часа, мм.
S - Снежный покров - Высота снежного покрова, см. При наведении курсора мыши на число - состояние снежного покрова и степень покрытия местности в баллах.